TimeCST,TemperatureF,Dew PointF,Humidity,Sea Level PressureIn,VisibilityMPH,Wind Direction,Wind SpeedMPH,Gust SpeedMPH,PrecipitationIn,Events,Conditions,WindDirDegrees,DateUTC
12:53 AM,63.0,52.0,67,30.19,10.0,SE,5.8,-,N/A,,Overcast,140,2013-02-02 06:53:00
1:53 AM,63.0,53.1,70,30.17,10.0,SE,5.8,-,N/A,,Overcast,140,2013-02-02 07:53:00
2:53 AM,64.0,54.0,70,30.16,10.0,SSE,5.8,-,N/A,,Overcast,150,2013-02-02 08:53:00
3:53 AM,61.0,53.1,75,30.16,10.0,ESE,3.5,-,N/A,,Mostly Cloudy,110,2013-02-02 09:53:00
4:53 AM,60.1,53.1,78,30.16,10.0,Calm,Calm,-,N/A,,Mostly Cloudy,0,2013-02-02 10:53:00
5:53 AM,62.1,54.0,75,30.17,10.0,Calm,Calm,-,N/A,,Overcast,0,2013-02-02 11:53:00
6:53 AM,62.1,54.0,75,30.19,10.0,Calm,Calm,-,N/A,,Overcast,0,2013-02-02 12:53:00
7:53 AM,63.0,55.0,75,30.20,10.0,SE,4.6,-,N/A,,Overcast,130,2013-02-02 13:53:00
8:53 AM,64.9,55.9,73,30.22,10.0,SE,5.8,-,N/A,,Overcast,140,2013-02-02 14:53:00
9:53 AM,66.9,57.9,73,30.22,10.0,SE,4.6,-,N/A,,Overcast,140,2013-02-02 15:53:00
10:53 AM,71.1,60.1,68,30.23,10.0,SSE,8.1,-,N/A,,Overcast,160,2013-02-02 16:53:00
11:53 AM,73.0,57.9,59,30.21,10.0,South,8.1,-,N/A,,Overcast,180,2013-02-02 17:53:00
12:53 PM,73.9,57.0,55,30.18,10.0,Variable,5.8,-,N/A,,Overcast,0,2013-02-02 18:53:00
1:53 PM,75.9,57.0,52,30.15,10.0,South,4.6,-,N/A,,Overcast,170,2013-02-02 19:53:00
2:53 PM,78.1,57.0,48,30.14,10.0,South,4.6,-,N/A,,Scattered Clouds,180,2013-02-02 20:53:00
3:53 PM,80.1,55.0,42,30.12,10.0,SSW,5.8,-,N/A,,Mostly Cloudy,210,2013-02-02 21:53:00
4:53 PM,80.1,55.9,43,30.12,10.0,WSW,4.6,-,N/A,,Mostly Cloudy,240,2013-02-02 22:53:00
5:53 PM,77.0,55.9,48,30.13,10.0,East,5.8,-,N/A,,Clear,90,2013-02-02 23:53:00
6:53 PM,73.9,55.9,53,30.15,10.0,East,4.6,-,N/A,,Clear,90,2013-02-03 00:53:00
7:53 PM,71.1,60.1,68,30.18,10.0,East,11.5,-,N/A,,Scattered Clouds,90,2013-02-03 01:53:00
8:53 PM,70.0,60.1,71,30.22,10.0,ESE,11.5,-,N/A,,Mostly Cloudy,120,2013-02-03 02:53:00
9:53 PM,66.9,60.1,79,30.23,10.0,East,6.9,-,N/A,,Clear,100,2013-02-03 03:53:00
10:53 PM,64.9,59.0,81,30.24,10.0,East,5.8,-,N/A,,Clear,90,2013-02-03 04:53:00
11:53 PM,64.0,57.9,80,30.23,10.0,ESE,6.9,-,N/A,,Clear,110,2013-02-03 05:53:00